Погода в Астаре

Погода в Астаре : погода сейчас, прогноз погоды и архив. Всё, что Вы хотите узнать о погоде в Астаре!

Поиск расширенной информации на нашем сайте:

Другие новости

Новости СМИ2

Главная страница сайта

Новости сайта

03.07.2017

Напоминаем, что на нашем специализированном сайте Метеоцентр.Азия вы можете получить высокодетализированные автоматические прогнозы погоды по пунктам России, СНГ и мира в авиационном формате (включающие направление и скорость ветра, видимость, явления погоды, количество и форму облачности, нижнюю и верхнюю границу облачности).


Погода в Астаре - сегодня

Время (UTC), дата Ветер
(°,м/с) 
Видим.   Явления Облачность Т
(°С)
Тd
(°С)
f(%) Тe
(°С)
Pmin
(гПа)
dP
(гПа)
Po
(мм)
O2
(г/м3)
Тmin Tmax R s Состояние
почвы
00 15.11.18 360 (С) 4000 м    10/10 600 м 
[Sc]
+8.7 +7.8 94 +10  1021.4  -0.9  768  299           
03 15.11.18 350 (С) 4000 м    10/10 600 м 
[Sc]
+8.6 +8 96 +10  1021.3  -0.1  768  299           
06 15.11.18 340 (С) 20000 м    10/10 600 м 
[Sc]
+9.4 +7.7 89 +9  1022.1  0.8  769  298  +8.4    0.2     
09 15.11.18 020 (С) 20000 м    8/8 600 м 
[Sc]
+11.6 +8.4 81 +13  1021  -1.1  768  295           
12 15.11.18 030 (СВ) 20000 м    10/10 600 м 
[Sc]
+11.6 +9.2 85 +13  1020.6  -0.4  767  295           
15 15.11.18 тихо ()   4000 м    10/10 1000 м 
[Sc]
+11.2 +9.7 90 +12  1020.8  0.2  768  295           
21 15.11.18 320 (СЗ) 4000 м    10/10 600 м 
[Sc]
+10.6 +9.4 92 +12  1021  0.3  768  296           
00 16.11.18 340 (С) 4000 м    10/10 600 м 
[Sc]
+10.5 +9 90 +11  1020.6  -0.4  767  296           
03 16.11.18 340 (С) 4000 м    10/10 600 м 
[Sc]
+10.4 +8.5 88 +12  1020.7  0.1  768  296           
06 16.11.18 350 (С) 20000 м    10/10 600 м 
[Sc]
+10.7 +8.9 89 +12  1021.5  0.8  768  296  +10.2       
09 16.11.18 330 (СЗ) 20000 м    10/10 600 м 
[Sc]
+12.4 +9.7 84 +14  1021  -0.5  768  294           
12 16.11.18 020 (С) 20000 м    9/9 600 м 
[Sc]
+13.4 +9.8 79 +14  1020.8  -0.3  768  293           
15 16.11.18 350 (С) 4000 м    8/8 600 м 
[Sc]
+12.6 +10 84 +14  1021.8  1.1  768  294           
18 16.11.18 340 (С) 4000 м    ясно 
+10.4 +9.5 94 +12  1022.8  769  297    +13.4       
21 16.11.18 290 (З) 4000 м    9/9 600 м 
[Sc]
+9.5 +9.1 97 +11  1022.6  -0.2  769  298           
00 17.11.18 340 (С) 4000 м    10/10 600 м 
[Sc]
+10.9 +10 94 +13  1022.6  769  296           
03 17.11.18 280 (З) 4000 м    8/8 600 м средняя 
[Cu hum|Ac trans]
+9.5 +9.2 98 +11  1022.8  0.2  769  298           
09 17.11.18 030 (СВ) 20000 м    6/6 600 м средняя 
[Cu hum|Ac trans]
+16 +11.5 75 +20  1022.2  -1.3  769  290           
12 17.11.18 030 (СВ) 10 км    10/10 600 м 
[Sc]
+14.8 +11.4 80 +18  1022.1  -0.1  769  292           
15 17.11.18 320 (СЗ) 4000 м    10/10 600 м 
[Sc]
+14.2 +11.5 84 +18  1023.7  1.7  770  293           
18 17.11.18 310 (СЗ) 4000 м    1/0 средняя 
[Ac trans]
+11.8 +10.3 91 +14  1024.6  0.9  770  296    +16.8       
21 17.11.18 280 (З) 4000 м    1/0 средняя 
[Ac trans]
+10.7 +9.5 92 +11  1024  -0.6  770  297           
00 18.11.18 310 (СЗ) 4000 м    ясно 
+10.5 +9.3 92 +11  1024.2  0.2  770  297           
03 18.11.18 280 (З) 4000 м    5/0 средняя, верхняя 
[Ac trans|Ci fib]
+9.9 +8.7 92 +11  1024.3  0.1  770  298           
09 18.11.18 040 (СВ) 20000 м    9/9 600 м 
[Sc]
+13.4 +8 70 +14  1023.7  -0.9  770  294           
Время (UTC), дата Ветер
(°,м/с) 
Видим.   Явления Облачность Т
(°С)
Тd
(°С)
f(%) Тe
(°С)
Pmin
(гПа)
dP
(гПа)
Po
(мм)
O2
(г/м3)
Тmin Tmax R s Состояние
почвы

Для получения пояснительной информации подведите курсор к названию столбца.

ПОГОДА в Астаре - архив

Всё, что Вы хотите узнать о погоде в Астаре - удобно и подробно!

Выберите нужную дату (начиная с 1 января 2015* года) и нажмите кнопку "Найти".
Будут отображены архивные сводки погоды по пункту Астара, начиная с указанной даты.


Отображать данные в формате CSV (для использования в таблицах Excel)


Внимание! Наш архив погоды предназначен исключительно для личного некоммерческого использования в познавательных целях. Если Вам необходимы официальные справки о состоянии погоды (для производственных, юридических, коммерческих и т.п. целей), обращайтесь в органы Росгидромета.

*Примечание: данная дата относится к архиву по метеостанциям СССР (Россия, СНГ, Балтия).
Архив по метеостанциям Зарубежной Европы и Азии (кроме Китая) хранится 10 дней, по другим регионам земного шара (Китай, Африка, Америка, Австралия, Океания) - 1 день.

Астара - район местоположения метеостанции


Название, широта, долгота, высота метеостанции:
Астара 38.4°ш. 48.9°д. -22 м над ур. моря [Азербайджан]

Дополнительная информация

В oтличие oт бoльшинства пoгoдных сайтoв мы публикуем пoдрoбную метеoинфoрмацию в детальнoм прoфессиoнальнoм фoрмате.

Характеристики температуры и влажнoсти вoздуха измеряются на высoте 2 м в тени вдали oт зданий и деревьев.
Скoрoсть ветра измеряется на высoте 10 м (на урoвне рoста челoвека скoрoсть ветра ниже в 1.5-2 раза). Если метеoстанция нахoдится в гoрoде или в лесу, тo скoрoсть ветра занижена на 2-4 м/с пo сравнению с oткрытым местoм. Скoрoсть ветра над акватoриями крупных рек и oзёр, а также на вершинах хoлмoв на 2-5 м/с выше, чем в oбычных услoвиях.
Атмoсфернoе давление в разных тoчках местнoсти мoжет значительнo oтличаться oт давления на метеoстанции, в зависимoсти oт услoвий рельефа (при пoдъёме на 10 м давление пoнижается примернo на 1 мм рт.ст.).